Location: Moonridge Observatory
(39.2268°N, 77.7914°W)
Time: 06:33:27
(UTC-04:00)

Amateur Radio Satellites - All Passes

Search period start: 02 September 2015 06:03
Search period end: 03 September 2015 06:03
Location: Moonridge Observatory, 39.2268°N, 77.7914°W

Satellite Date Start Highest point End Downlink Frequencies (MHz)
Time Altitude Azimuth
O/OREOS (USA 219) 02 Sep 06:03:33 06:07:36 30° 256° (WSW) 06:11:35 437.305
AO-7 02 Sep 06:05:46 06:13:52 58° 293° (WNW) 06:21:53 29.400- 29.500
CUBESAT XI-V 02 Sep 06:07:41 06:12:05 48° 73° (ENE) 06:16:31 437.345
PHONESAT 2.4 02 Sep 06:27:50 06:31:14 70° 163° (SSE) 06:34:38 2401.200-2431.200
HORYU 2 02 Sep 06:30:22 06:33:13 16° 294° (WNW) 06:35:55 437.375
STRAND 1 02 Sep 06:30:59 06:35:03 25° 67° (ENE) 06:39:14 437.568
JAS-2 02 Sep 06:31:58 06:33:47 11° 307° (NW) 06:35:08 435.910
Cubesat XI-IV 02 Sep 06:40:18 06:44:32 24° 93° (E) 06:48:53 437.490
YUBILEINY 02 Sep 06:45:27 06:49:11 14° 57° (ENE) 06:53:34 435.215
VERMONT LUNAR 02 Sep 06:56:10 06:59:09 86° 11° (N) 07:02:08 437.305
Cosmos 2499 02 Sep 07:05:23 07:10:45 17° 301° (WNW) 07:15:41 435.465 / 435.565
CUTE-I 02 Sep 07:24:07 07:29:24 64° 101° (E) 07:34:42 437.470
PRISM 02 Sep 07:33:36 07:37:41 73° 76° (ENE) 07:41:46 437.425
Cosmos 2491 02 Sep 07:35:49 07:38:33 12° 77° (ENE) 07:42:02 435.465 / 435.565
BRITE-PL 02 Sep 07:38:01 07:41:46 19° 90° (E) 07:45:48 437.365/2234.400
CUBESAT XI-V 02 Sep 07:47:03 07:49:51 15° 270° (W) 07:52:27 437.345
AIST 1 02 Sep 07:56:52 08:00:37 32° 91° (E) 08:04:26
GOMX 1 02 Sep 07:59:53 08:03:22 18° 89° (E) 08:07:05 467.674
AO-7 02 Sep 08:01:51 08:05:06 12° 312° (NW) 08:07:52 29.400- 29.500
PHONESAT 2.4 02 Sep 08:05:46 08:09:10 68° 360° (N) 08:12:33 2401.200-2431.200
DOVE 4 02 Sep 08:07:56 08:09:30 11° 86° (E) 08:11:26 437.250
STRAND 1 02 Sep 08:09:24 08:14:06 37° 263° (W) 08:18:48 437.568
ISS 02 Sep 08:12:09 08:15:04 31° 135° (SE) 08:18:01 145.825
Cubesat XI-IV 02 Sep 08:19:50 08:24:48 40° 290° (WNW) 08:29:43 437.490
VERMONT LUNAR 02 Sep 08:32:51 08:35:23 25° 207° (SSW) 08:37:54 437.305
CANX-2 02 Sep 08:33:31 08:35:02 12° 89° (E) 08:36:47 2200.000
YUBILEINY 02 Sep 08:39:11 08:48:02 73° 80° (E) 08:56:49 435.215
SEEDS 02 Sep 08:51:49 08:53:51 14° 90° (E) 08:56:06 437.485
CUTE-I 02 Sep 09:05:39 09:09:01 17° 297° (WNW) 09:12:10 437.470
COMPASS 1 02 Sep 09:10:36 09:13:21 17° 92° (E) 09:16:12 437.405
BRITE-PL 02 Sep 09:15:10 09:20:37 58° 286° (WNW) 09:26:12 437.365/2234.400
AAUSAT CUBESAT 2 02 Sep 09:19:21 09:22:12 18° 92° (E) 09:25:10 437.432
Cosmos 2491 02 Sep 09:25:28 09:34:07 75° 94° (E) 09:42:49 435.465 / 435.565
AUBIESAT-1 02 Sep 09:27:44 09:29:09 11° 59° (ENE) 09:30:46 437.475
CUSAT 1 02 Sep 09:27:49 09:31:18 14° 59° (ENE) 09:35:24 437.405
M-CUBED/EXP-1 PRIME 02 Sep 09:33:09 09:35:53 16° 61° (ENE) 09:38:46 437.505
SO-50 02 Sep 09:33:34 09:38:07 36° 50° (NE) 09:42:37 436.795
HO-68 02 Sep 09:35:11 09:42:18 60° 102° (ESE) 09:49:23 435.675
AIST 1 02 Sep 09:35:21 09:38:24 18° 288° (WNW) 09:41:20
GOMX 1 02 Sep 09:36:29 09:41:54 60° 286° (WNW) 09:47:16 467.674
ANTELSAT 02 Sep 09:36:49 09:38:50 13° 64° (ENE) 09:41:04 437.575/2403.000
DOVE 4 02 Sep 09:42:37 09:47:59 82° 284° (WNW) 09:53:14 437.250
PHONESAT 2.4 02 Sep 09:43:42 09:47:06 71° 197° (SSW) 09:50:29 2401.200-2431.200
ISS 02 Sep 09:48:34 09:51:29 29° 331° (NNW) 09:54:23 145.825
ZACube-1 02 Sep 09:52:25 09:54:17 13° 88° (E) 09:56:21 437.345
CUTE 1.7 + AOD 2 02 Sep 09:52:51 09:57:06 87° 283° (WNW) 10:01:18 437.475
PCSat 02 Sep 09:55:17 09:58:47 17° 44° (NE) 10:02:25 145.827
FUNcube-1 02 Sep 09:56:48 09:58:59 14° 89° (E) 10:01:22 145.935
CUBEBUG 2 02 Sep 09:57:35 10:01:31 27° 94° (E) 10:05:23 437.445
Cosmos 2504 02 Sep 09:57:55 10:05:12 32° 69° (ENE) 10:12:16 435.465 / 435.565
UWE-3 02 Sep 10:01:31 10:05:03 22° 92° (E) 10:08:36 435.000/436.395/437.385
DANDE 02 Sep 10:05:40 10:10:40 19° 64° (ENE) 10:16:26 436.750
CANX-2 02 Sep 10:07:13 10:11:20 52° 286° (WNW) 10:15:25 2200.000
CINEMA 3 02 Sep 10:17:00 10:22:02 82° 284° (WNW) 10:26:52 145.822/145.860
QB50P1 02 Sep 10:17:07 10:17:51 10° 64° (ENE) 10:18:50 145.935-145.965
UNISAT 6 02 Sep 10:25:04 10:29:25 40° 72° (ENE) 10:33:50 437.425
SEEDS 02 Sep 10:25:56 10:29:56 44° 287° (WNW) 10:33:54 437.485
YUBILEINY 02 Sep 10:37:34 10:44:06 23° 278° (W) 10:50:11 435.215
Oscar 11 02 Sep 10:39:56 10:44:14 70° 101° (E) 10:48:30 145.826/435.025
COMPASS 1 02 Sep 10:45:22 10:49:08 34° 288° (WNW) 10:52:52 437.405
TIGRISAT 02 Sep 10:52:36 10:57:16 76° 75° (ENE) 11:01:59 435.000
AAUSAT CUBESAT 2 02 Sep 10:54:11 10:57:54 32° 288° (WNW) 11:01:33 437.432
AUBIESAT-1 02 Sep 10:58:31 11:03:16 87° 257° (WSW) 11:07:57 437.475
M-CUBED/EXP-1 PRIME 02 Sep 11:05:26 11:10:13 63° 255° (WSW) 11:14:55 437.505
AISAT 02 Sep 11:05:52 11:06:59 11° 89° (E) 11:08:24 437.250
DELFI C3 02 Sep 11:06:28 11:10:28 87° 284° (WNW) 11:14:27 145.870
CUSAT 1 02 Sep 11:07:26 11:15:20 67° 78° (ENE) 11:23:30 437.405
ANTELSAT 02 Sep 11:10:25 11:15:05 68° 259° (W) 11:19:48 437.575/2403.000
SO-50 02 Sep 11:14:22 11:18:33 28° 247° (WSW) 11:22:34 436.795
POLYITAN 1 02 Sep 11:15:40 11:19:46 49° 74° (ENE) 11:23:57 437.675
DUCHIFAT 1 02 Sep 11:16:37 11:20:39 46° 73° (ENE) 11:24:46 145.980
POPSAT HIP 1 02 Sep 11:17:36 11:21:42 50° 73° (ENE) 11:25:52 437.405
BUGSAT 1 02 Sep 11:17:38 11:21:06 28° 71° (ENE) 11:24:41 437.445
PHONESAT 2.4 02 Sep 11:22:12 11:24:38 18° 211° (SSW) 11:27:03 2401.200-2431.200
DOVE 4 02 Sep 11:23:36 11:24:57 11° 299° (WNW) 11:25:57 437.250
HO-68 02 Sep 11:23:45 11:29:36 27° 298° (WNW) 11:35:16 435.675
Cosmos 2491 02 Sep 11:25:22 11:32:02 23° 296° (WNW) 11:38:20 435.465 / 435.565
ZACube-1 02 Sep 11:26:40 11:31:04 54° 286° (WNW) 11:35:20 437.345
ISS 02 Sep 11:27:55 11:28:44 11° 351° (N) 11:29:33 145.825
FUNcube-1 02 Sep 11:31:21 11:35:41 49° 286° (WNW) 11:39:53 145.935
VELOX 1 02 Sep 11:31:41 11:35:03 21° 93° (E) 11:38:32 145.980
CUBEBUG 2 02 Sep 11:34:08 11:38:09 28° 291° (WNW) 11:42:00 437.445
50 SAT 02 Sep 11:34:10 11:37:22 25° 95° (E) 11:40:36 437.505
NANOSAT C BR1 02 Sep 11:34:33 11:38:46 79° 76° (ENE) 11:43:03 145.865
QB50P2 02 Sep 11:34:51 11:39:06 84° 77° (ENE) 11:43:24 145.880/145.840
PCSat 02 Sep 11:37:26 11:42:53 77° 244° (WSW) 11:48:17 145.827
UWE-3 02 Sep 11:37:33 11:41:38 32° 290° (WNW) 11:45:35 435.000/436.395/437.385
DANDE 02 Sep 11:46:55 11:54:45 86° 81° (E) 12:03:21 436.750
QB50P1 02 Sep 11:48:57 11:53:11 69° 259° (WSW) 11:57:27 145.935-145.965
Cosmos 2504 02 Sep 11:49:41 11:57:49 52° 270° (W) 12:05:22 435.465 / 435.565
HUMSAT D 02 Sep 11:58:04 12:02:16 61° 285° (WNW) 12:06:21 437.325/437.525
UNISAT 6 02 Sep 12:02:53 12:06:22 20° 268° (W) 12:09:44 437.425
DX 1 02 Sep 12:10:42 12:15:06 87° 288° (WNW) 12:19:31 434.975-435.025
Oscar 11 02 Sep 12:18:53 12:19:53 11° 296° (WNW) 12:20:39 145.826/435.025
UKube-1 02 Sep 12:20:41 12:25:02 75° 285° (WNW) 12:29:22 .
SPROUT 02 Sep 12:25:11 12:27:38 15° 91° (E) 12:30:16 437.525
ESTCUBE 1 02 Sep 12:32:29 12:37:01 77° 103° (ESE) 12:41:30 437.505/2401.250
TIGRISAT 02 Sep 12:34:07 12:34:38 10° 273° (W) 12:34:49 435.000
CUBEBUG 1 02 Sep 12:34:52 12:39:17 67° 101° (E) 12:43:42 437.445
AISAT 02 Sep 12:39:36 12:44:03 64° 285° (WNW) 12:48:30 437.250
CUSAT 1 02 Sep 12:50:57 12:57:28 27° 273° (W) 13:03:50 437.405
BUGSAT 1 02 Sep 12:53:28 12:56:35 21° 266° (W) 12:59:41 437.445
POLYITAN 1 02 Sep 12:53:48 12:56:01 13° 270° (W) 12:58:01 437.675
DUCHIFAT 1 02 Sep 12:54:29 12:56:46 14° 270° (W) 12:58:52 145.980
POPSAT HIP 1 02 Sep 12:55:50 12:57:55 13° 270° (W) 12:59:48 437.405
ISS 02 Sep 13:05:17 13:06:20 11° 11° (N) 13:07:23 145.825
VELOX 1 02 Sep 13:07:39 13:11:41 33° 289° (WNW) 13:15:40 145.980
50 SAT 02 Sep 13:08:49 13:11:47 21° 290° (WNW) 13:14:37 437.505
JAS-2 02 Sep 13:13:22 13:15:14 11° 53° (NE) 13:17:37 435.910
TISAT 1 02 Sep 13:21:15 13:25:11 35° 97° (E) 13:29:08 437.305
Oscar 19 02 Sep 13:25:20 13:30:17 50° 72° (ENE) 13:35:19 437.125/150
GONETS M04 02 Sep 13:26:55 13:34:43 35° 71° (ENE) 13:42:42
DANDE 02 Sep 13:31:47 13:37:20 20° 274° (W) 13:42:46 436.750
SWISSCUBE 02 Sep 13:49:30 13:51:36 13° 89° (E) 13:53:59 437.505
SPROUT 02 Sep 13:59:50 14:03:59 44° 287° (WNW) 14:08:05 437.525
ESTCUBE 1 02 Sep 14:12:23 14:13:19 10° 297° (WNW) 14:13:58 437.505/2401.250
CUBEBUG 1 02 Sep 14:13:31 14:15:08 12° 296° (WNW) 14:16:32 437.445
Gurwin Techsat 1B 02 Sep 14:20:17 14:25:23 51° 72° (ENE) 14:30:33 435.225
ITUPSAT 1 02 Sep 14:27:18 14:31:27 30° 96° (E) 14:35:39 437.325
ITAMSAT 1 02 Sep 14:28:05 14:33:02 50° 72° (ENE) 14:38:02 435.822/435.867
BEESAT 3 02 Sep 14:35:37 14:39:23 39° 116° (ESE) 14:43:14 437.485
ISS 02 Sep 14:40:33 14:43:31 32° 30° (NNE) 14:46:31 145.825
BEESAT 2 02 Sep 14:50:18 14:54:09 43° 116° (ESE) 14:58:05 435.950
JAS-2 02 Sep 14:51:22 14:58:49 56° 71° (ENE) 15:06:28 435.910
JUGNU 02 Sep 14:56:00 14:57:14 11° 182° (S) 14:58:27 437.505
TISAT 1 02 Sep 14:57:38 15:00:43 19° 292° (WNW) 15:03:39 437.305
BEESAT 02 Sep 14:58:57 15:03:42 67° 102° (ESE) 15:08:25 436.000
Cosmos 2499 02 Sep 15:01:00 15:08:43 36° 71° (ENE) 15:16:06 435.465 / 435.565
RS-15 02 Sep 15:01:20 15:09:46 29° 105° (ESE) 15:18:51 29.354- 29.394
Oscar 19 02 Sep 15:06:21 15:09:59 19° 269° (W) 15:13:28 437.125/150
AO-7 02 Sep 15:11:26 15:18:54 39° 62° (ENE) 15:26:28 29.400- 29.500
GONETS M04 02 Sep 15:23:28 15:31:52 50° 270° (W) 15:40:11
SWISSCUBE 02 Sep 15:25:14 15:29:56 60° 286° (WNW) 15:34:36 437.505
AIST 2 02 Sep 15:39:19 15:42:55 28° 114° (ESE) 15:46:36 435.215
KKS-1 02 Sep 15:41:07 15:45:00 29° 96° (E) 15:48:56 437.445
HORYU 2 02 Sep 15:49:43 15:53:51 37° 71° (ENE) 15:58:02 437.375
Gurwin Techsat 1B 02 Sep 16:01:58 16:05:44 19° 269° (W) 16:09:18 435.225
ITUPSAT 1 02 Sep 16:05:15 16:09:17 27° 291° (WNW) 16:13:12 437.325
ITAMSAT 1 02 Sep 16:09:13 16:12:53 19° 268° (W) 16:16:21 435.822/435.867
SRMSAT 02 Sep 16:09:16 16:10:35 11° 179° (S) 16:11:54 437.500
BEESAT 3 02 Sep 16:14:26 16:17:29 20° 313° (NW) 16:20:29 437.485
ISS 02 Sep 16:17:05 16:19:52 26° 226° (SW) 16:22:36 145.825
BEESAT 2 02 Sep 16:29:24 16:32:25 19° 314° (NW) 16:35:21 435.950
JAS-2 02 Sep 16:37:26 16:44:09 31° 268° (W) 16:50:51 435.910
BEESAT 02 Sep 16:38:42 16:41:02 13° 296° (WNW) 16:43:08 436.000
STARS 02 Sep 16:53:45 16:58:13 75° 285° (WNW) 17:02:37 437.465
Cosmos 2499 02 Sep 16:54:00 17:02:06 46° 271° (W) 17:09:34 435.465 / 435.565
AO-7 02 Sep 17:03:36 17:11:35 47° 260° (W) 17:19:31 29.400- 29.500
CUTE-I 02 Sep 17:09:02 17:10:50 12° 61° (ENE) 17:12:56 437.470
RS-15 02 Sep 17:10:16 17:21:13 74° 305° (NW) 17:32:37 29.354- 29.394
AIST 2 02 Sep 17:17:45 17:21:27 28° 310° (NW) 17:25:07 435.215
KKS-1 02 Sep 17:17:49 17:21:32 25° 291° (WNW) 17:25:09 437.445
HORYU 2 02 Sep 17:27:21 17:30:39 19° 267° (W) 17:33:48 437.375
MOZHAYETS 4 02 Sep 17:43:08 17:47:43 90° 285° (WNW) 17:52:16
Cubesat XI-IV 02 Sep 18:01:09 18:05:59 37° 69° (ENE) 18:10:51 437.490
CUBESAT XI-V 02 Sep 18:07:01 18:09:06 13° 89° (E) 18:11:27 437.345
O/OREOS (USA 219) 02 Sep 18:35:20 18:39:22 33° 105° (ESE) 18:43:31 437.305
CUTE-I 02 Sep 18:44:56 18:50:15 88° 250° (WSW) 18:55:37 437.470
BRITE-PL 02 Sep 18:49:14 18:51:41 15° 64° (ENE) 18:54:25 437.365/2234.400
GOMX 1 02 Sep 19:08:09 19:10:31 14° 63° (ENE) 19:13:10 467.674
PRISM 02 Sep 19:19:31 19:20:09 10° 89° (E) 19:21:04 437.425
RS-15 02 Sep 19:27:09 19:36:08 26° 333° (NNW) 19:45:12 29.354- 29.394
Cosmos 2491 02 Sep 19:37:30 19:45:14 35° 71° (ENE) 19:53:09 435.465 / 435.565
Cubesat XI-IV 02 Sep 19:41:42 19:46:10 26° 266° (W) 19:50:34 437.490
AIST 1 02 Sep 19:41:46 19:46:08 87° 266° (W) 19:50:30
CUBESAT XI-V 02 Sep 19:42:24 19:46:59 57° 285° (WNW) 19:51:33 437.345
YUBILEINY 02 Sep 19:46:55 19:51:12 16° 79° (E) 19:56:08 435.215
COMPASS 1 02 Sep 20:02:19 20:03:40 12° 66° (ENE) 20:05:15 437.405
HO-68 02 Sep 20:02:40 20:09:10 40° 66° (ENE) 20:15:48 435.675
AAUSAT CUBESAT 2 02 Sep 20:10:30 20:12:02 12° 66° (ENE) 20:13:46 437.432
O/OREOS (USA 219) 02 Sep 20:15:13 20:18:54 23° 302° (WNW) 20:22:30 437.305
STRAND 1 02 Sep 20:20:23 20:25:31 81° 105° (ESE) 20:30:38 437.568
BRITE-PL 02 Sep 20:25:27 20:29:44 52° 262° (W) 20:34:21 437.365/2234.400
GOMX 1 02 Sep 20:43:37 20:48:05 60° 260° (W) 20:52:55 467.674
CUTE 1.7 + AOD 2 02 Sep 20:44:16 20:48:28 57° 75° (ENE) 20:52:40 437.475
DOVE 4 02 Sep 20:46:50 20:51:28 88° 78° (ENE) 20:56:27 437.250
ZACube-1 02 Sep 20:48:57 20:49:35 10° 63° (ENE) 20:50:29 437.345
PRISM 02 Sep 20:51:58 20:56:01 57° 286° (WNW) 21:00:03 437.425
FUNcube-1 02 Sep 20:52:44 20:53:58 11° 64° (ENE) 20:55:27 145.935
CUBEBUG 2 02 Sep 20:54:53 20:58:21 22° 68° (ENE) 21:02:00 437.445
UWE-3 02 Sep 20:57:56 21:00:58 18° 67° (ENE) 21:04:11 435.000/436.395/437.385
CANX-2 02 Sep 20:58:31 21:02:48 87° 257° (WSW) 21:07:07 2200.000
SEEDS 02 Sep 21:16:15 21:20:30 77° 258° (WSW) 21:24:45 437.485
CINEMA 3 02 Sep 21:17:01 21:21:43 80° 78° (ENE) 21:26:40 145.822/145.860
Oscar 11 02 Sep 21:33:27 21:37:36 46° 73° (ENE) 21:41:47 145.826/435.025
Cosmos 2491 02 Sep 21:34:04 21:42:24 49° 270° (W) 21:50:40 435.465 / 435.565
COMPASS 1 02 Sep 21:34:43 21:38:53 60° 260° (W) 21:43:03 437.405
YUBILEINY 02 Sep 21:38:06 21:46:52 85° 98° (E) 21:55:46 435.215
AAUSAT CUBESAT 2 02 Sep 21:43:04 21:47:12 57° 260° (W) 21:51:19 437.432
RS-15 02 Sep 21:46:41 21:54:11 19° 8° (N) 22:02:02 29.354- 29.394
HO-68 02 Sep 21:50:19 21:56:56 38° 263° (W) 22:03:29 435.675
DELFI C3 02 Sep 21:52:10 21:56:02 46° 74° (ENE) 21:59:56 145.870
STRAND 1 02 Sep 22:01:56 22:04:07 12° 298° (WNW) 22:06:02 437.568
50 SAT 02 Sep 22:17:44 22:19:39 14° 67° (ENE) 22:21:44 437.505
ZACube-1 02 Sep 22:20:45 22:25:19 81° 260° (W) 22:29:57 437.345
CUTE 1.7 + AOD 2 02 Sep 22:23:16 22:24:48 11° 271° (W) 22:26:04 437.475
FUNcube-1 02 Sep 22:25:09 22:29:42 75° 259° (WSW) 22:34:18 145.935
Cosmos 2504 02 Sep 22:27:25 22:33:26 24° 82° (E) 22:39:59 435.465 / 435.565
VELOX 1 02 Sep 22:28:53 22:31:43 18° 67° (ENE) 22:34:43 145.980
CUBEBUG 2 02 Sep 22:30:27 22:34:48 38° 264° (W) 22:39:13 437.445
UWE-3 02 Sep 22:32:43 22:37:09 45° 262° (W) 22:41:39 435.000/436.395/437.385
TIGRISAT 02 Sep 22:46:50 22:49:42 17° 91° (E) 22:52:40 435.000
HUMSAT D 02 Sep 22:48:01 22:52:21 79° 77° (ENE) 22:56:42 437.325/437.525
BEESAT 3 02 Sep 22:55:21 22:58:17 19° 46° (NE) 23:01:16 437.485
ANTELSAT 02 Sep 23:04:08 23:07:58 27° 94° (E) 23:11:46 437.575/2403.000
DX 1 02 Sep 23:05:00 23:09:18 70° 75° (ENE) 23:13:38 434.975-435.025
BEESAT 2 02 Sep 23:10:36 23:13:42 21° 47° (NE) 23:16:49 435.950
Oscar 11 02 Sep 23:11:34 23:14:05 14° 270° (W) 23:16:24 145.826/435.025
UKube-1 02 Sep 23:14:06 23:18:24 80° 76° (ENE) 23:22:44 .
SPROUT 02 Sep 23:19:58 23:21:04 11° 64° (ENE) 23:22:25 437.525
NANOSAT C BR1 02 Sep 23:22:02 23:24:10 14° 90° (E) 23:26:29 145.865
QB50P2 02 Sep 23:22:35 23:24:58 15° 91° (E) 23:27:32 145.880/145.840
DELFI C3 02 Sep 23:29:34 23:31:24 12° 270° (W) 23:33:02 145.870
CUBEBUG 1 02 Sep 23:29:52 23:34:00 47° 73° (ENE) 23:38:12 437.445
ESTCUBE 1 02 Sep 23:30:53 23:35:18 61° 74° (ENE) 23:39:44 437.505/2401.250
QB50P1 02 Sep 23:35:49 23:39:00 21° 93° (E) 23:42:16 145.935-145.965
AISAT 02 Sep 23:35:56 23:40:21 83° 259° (W) 23:44:48 437.250
YUBILEINY 02 Sep 23:38:53 23:45:04 20° 298° (WNW) 23:50:51 435.215
SO-50 02 Sep 23:48:58 23:51:18 14° 109° (ESE) 23:53:55 436.795
50 SAT 02 Sep 23:50:02 23:53:49 43° 261° (W) 23:57:37 437.505
UNISAT 6 02 Sep 23:54:32 23:59:07 82° 284° (WNW) 00:03:32 437.425
RS-15 03 Sep 00:00:30 00:11:16 40° 41° (NE) 00:22:33 29.354- 29.394
AIST 2 03 Sep 00:02:18 00:04:54 16° 44° (NE) 00:07:35 435.215
VELOX 1 03 Sep 00:03:49 00:07:59 41° 262° (W) 00:12:10 145.980
TISAT 1 03 Sep 00:12:38 00:15:59 24° 69° (ENE) 00:19:25 437.305
CUSAT 1 03 Sep 00:13:42 00:17:36 62° 95° (E) 00:22:53 437.405
AUBIESAT-1 03 Sep 00:15:21 00:19:13 88° 106° (ESE) 00:22:45 437.475
Cosmos 2504 03 Sep 00:16:47 00:24:55 68° 280° (W) 00:33:29 435.465 / 435.565
TIGRISAT 03 Sep 00:22:24 00:26:43 42° 288° (WNW) 00:30:52 435.000
M-CUBED/EXP-1 PRIME 03 Sep 00:22:58 00:26:50 60° 290° (WNW) 00:30:22 437.505
BEESAT 3 03 Sep 00:32:36 00:36:23 39° 244° (WSW) 00:40:03 437.485
BUGSAT 1 03 Sep 00:35:17 00:39:30 58° 100° (E) 00:43:43 437.445
PCSat 03 Sep 00:37:12 00:40:14 16° 106° (ESE) 00:43:31 145.827
POLYITAN 1 03 Sep 00:37:36 00:41:55 75° 284° (WNW) 00:46:11 437.675
DUCHIFAT 1 03 Sep 00:37:39 00:41:57 80° 283° (WNW) 00:46:12 145.980
POPSAT HIP 1 03 Sep 00:39:16 00:43:35 74° 284° (WNW) 00:47:51 437.405
ANTELSAT 03 Sep 00:40:52 00:44:41 26° 291° (WNW) 00:48:21 437.575/2403.000
BEESAT 2 03 Sep 00:48:07 00:51:51 36° 245° (WSW) 00:55:30 435.950
SPROUT 03 Sep 00:52:22 00:56:38 67° 260° (W) 01:00:56 437.525
SWISSCUBE 03 Sep 00:55:19 00:57:51 15° 64° (ENE) 01:00:36 437.505
NANOSAT C BR1 03 Sep 00:56:10 01:00:18 47° 286° (WNW) 01:04:23 145.865
QB50P2 03 Sep 00:57:02 01:01:08 43° 287° (WNW) 01:05:11 145.880/145.840
DANDE 03 Sep 00:58:41 01:02:12 69° 282° (WNW) 01:06:58 436.750
CUBEBUG 1 03 Sep 01:08:19 01:10:42 14° 270° (W) 01:12:51 437.445
ESTCUBE 1 03 Sep 01:11:02 01:12:39 11° 271° (W) 01:13:59 437.505/2401.250
QB50P1 03 Sep 01:11:04 01:14:55 32° 289° (WNW) 01:18:42 145.935-145.965
SO-50 03 Sep 01:26:34 01:31:19 66° 304° (WNW) 01:36:14 436.795
ITUPSAT 1 03 Sep 01:33:09 01:37:19 31° 70° (ENE) 01:41:33 437.325
Oscar 19 03 Sep 01:38:54 01:42:28 19° 91° (E) 01:46:13 437.125/150
AIST 2 03 Sep 01:39:45 01:43:50 55° 243° (WSW) 01:47:50 435.215
TISAT 1 03 Sep 01:48:02 01:51:39 27° 265° (W) 01:55:14 437.305
CUSAT 1 03 Sep 01:59:15 02:01:16 12° 303° (WNW) 02:03:13 437.405
BEESAT 03 Sep 02:04:12 02:08:55 68° 74° (ENE) 02:13:41 436.000
BUGSAT 1 03 Sep 02:12:39 02:14:31 12° 295° (WNW) 02:16:11 437.445
RS-15 03 Sep 02:12:55 02:24:43 70° 244° (WSW) 02:36:49 29.354- 29.394
Cosmos 2504 03 Sep 02:15:30 02:19:12 13° 304° (WNW) 02:22:19 435.465 / 435.565
PCSat 03 Sep 02:17:47 02:23:09 66° 300° (WNW) 02:28:34 145.827
GONETS M04 03 Sep 02:26:44 02:34:33 41° 88° (E) 02:42:34
SWISSCUBE 03 Sep 02:30:34 02:35:17 59° 260° (W) 02:39:59 437.505
VERMONT LUNAR 03 Sep 02:37:05 02:39:37 25° 153° (SSE) 02:42:09 437.305
Gurwin Techsat 1B 03 Sep 02:38:14 02:42:15 22° 92° (E) 02:46:24 435.225
KKS-1 03 Sep 02:38:31 02:42:04 24° 68° (ENE) 02:45:41 437.445
ITAMSAT 1 03 Sep 02:42:52 02:46:25 19° 92° (E) 02:50:09 435.822/435.867
SO-50 03 Sep 03:11:06 03:12:55 12° 325° (NW) 03:14:32 436.795
ITUPSAT 1 03 Sep 03:11:13 03:15:13 26° 265° (W) 03:19:09 437.325
Oscar 19 03 Sep 03:17:08 03:22:09 48° 288° (WNW) 03:27:06 437.125/150
Cosmos 2499 03 Sep 03:35:49 03:42:46 30° 84° (E) 03:50:13 435.465 / 435.565
BEESAT 03 Sep 03:45:31 03:47:19 12° 272° (W) 03:48:48 436.000
JAS-2 03 Sep 03:48:28 03:55:04 50° 97° (E) 04:00:54 435.910
STARS 03 Sep 03:49:11 03:53:36 84° 76° (ENE) 03:58:03 437.465
PCSat 03 Sep 04:05:47 04:07:45 12° 322° (NW) 04:09:29 145.827
PHONESAT 2.4 03 Sep 04:06:15 04:07:58 13° 146° (SSE) 04:09:46 2401.200-2431.200
VERMONT LUNAR 03 Sep 04:12:50 04:15:50 88° 353° (N) 04:18:49 437.305
KKS-1 03 Sep 04:14:38 04:18:35 30° 264° (W) 04:22:29 437.445
Gurwin Techsat 1B 03 Sep 04:17:26 04:22:28 43° 289° (WNW) 04:27:26 435.225
ITAMSAT 1 03 Sep 04:21:14 04:26:14 49° 288° (WNW) 04:31:12 435.822/435.867
GONETS M04 03 Sep 04:23:18 04:31:25 41° 287° (WNW) 04:39:30
RS-15 03 Sep 04:29:30 04:35:33 14° 261° (W) 04:40:28 29.354- 29.394
MOZHAYETS 4 03 Sep 04:43:40 04:48:17 75° 75° (ENE) 04:52:53
O/OREOS (USA 219) 03 Sep 04:45:53 04:50:26 55° 66° (ENE) 04:54:56 437.305
AO-7 03 Sep 05:05:47 05:14:02 65° 104° (ESE) 05:22:16 29.400- 29.500
CUBESAT XI-V 03 Sep 05:10:24 05:12:06 12° 64° (ENE) 05:14:02 437.345
HORYU 2 03 Sep 05:18:00 05:22:29 89° 103° (ESE) 05:26:55 437.375
Cosmos 2499 03 Sep 05:27:07 05:35:28 58° 283° (WNW) 05:44:11 435.465 / 435.565
JAS-2 03 Sep 05:34:05 05:39:45 27° 297° (WNW) 05:44:46 435.910
PHONESAT 2.4 03 Sep 05:42:05 05:45:26 56° 160° (SSE) 05:48:47 2401.200-2431.200
VERMONT LUNAR 03 Sep 05:49:21 05:52:20 68° 5° (N) 05:55:18 437.305
